Погода в Ербогачене

Погода в Ербогачене : погода сейчас, прогноз погоды и архив. Всё, что Вы хотите узнать о погоде в Ербогачене!

Хотите узнать прогноз погоды в Ербогачене? Тогда Вам сюда: Погода в Ербогачене

Поиск расширенной информации на нашем сайте:

Другие новости

Новости СМИ2

Главная страница сайта

Новости сайта

03.07.2017

Напоминаем, что на нашем специализированном сайте Метеоцентр.Азия вы можете получить высокодетализированные автоматические прогнозы погоды по пунктам России, СНГ и мира в авиационном формате (включающие направление и скорость ветра, видимость, явления погоды, количество и форму облачности, нижнюю и верхнюю границу облачности).

Рекомендуем: Понятие и виды налоговых споров.

Погода в Ербогачене - сегодня

Время (UTC), дата Ветер
(°,м/с) 
Видим.   Явления Облачность Т
(°С)
Тd
(°С)
f(%) Тe
(°С)
Pmin
(гПа)
dP
(гПа)
Po
(мм)
O2
(г/м3)
Тmin Tmax R s Состояние
почвы
21 19.09.17 тихо ()   н/о  туман на расстоянии  ясно 
-4.4 -4.6 99 -4  1014.4  0.2  734  301           
00 20.09.17 350 (С) 20000 м    6/0 верхняя 
[Ci fib]
-3.9 -4.9 93 -3  1015.5  735  301  -4.7         
03 20.09.17 080 (В) 20000 м    3/0 верхняя 
[Ci fib]
+5.2 -3 55 +6  1014.6  0.2  735  291           
06 20.09.17 020 (С) 20000 м    4/4 1000 м 
[Cu hum]
+8 -4.8 40 +9  1013.7  -0.5  735  288           
09 20.09.17 350 (С) 20000 м    1/1 1000 м 
[Sc diur, vesp]
+7.8 -5.6 38 +7  1013.4  -0.3  735  288           
12 20.09.17 тихо ()   н/о    ясно 
+0.2 -7.7 55 1014.6  0.2  735  297    +8.6       
15 20.09.17 тихо ()   н/о    ясно 
-2.2 -4.8 82 -2  1015.6  0.8  735  299           
18 20.09.17 тихо ()   н/о    ясно 
-6.1 -7.6 89 -6  1015.8  -0.4  735  304           
21 20.09.17 тихо ()   н/о  туман на расстоянии  ясно 
-8.7 -9.8 92 -9  1015.8  -0.4  735  307           
00 21.09.17 тихо ()   20000 м    ясно 
-7.1 -8.4 90 -7  1015.8  0.3  735  305  -9.2         
03 21.09.17 тихо ()   20000 м    ясно 
+5 -3.3 55 +5  1013.5  -0.8  734  291           
06 21.09.17 250 (З) 20000 м    1/1 1000 м 
[Cu hum]
+8.4 -3 44 +9  1011.3  -1.7  733  287           
09 21.09.17 100 (В) 20000 м    ясно 
+8.5 -4.8 39 +10  1010.1  -1.2  732  287           
12 21.09.17 тихо ()   н/о    1/0 средняя 
[Ac lent]
-0.2 -7 60 -0  1011.2  0.1  732  296    +9.3       
15 21.09.17 тихо ()   н/о    ясно 
-4.2 -6.8 82 -4  1011  -0.7  732  300           
18 21.09.17 тихо ()   н/о  туман на расстоянии  ясно 
-7.3 -8.2 93 -7  1010.5  -0.9  731  303           
21 21.09.17 тихо ()   н/о  туман на расстоянии  ясно 
-9.1 -9.4 98 -9  1010.2  -0.5  731  305           
00 22.09.17 тихо ()   20000 м    8/0 верхняя 
[Ci fib]
-8.1 -8.7 95 -8  1009.9  -0.1  731  304    -10.3       
03 22.09.17 тихо ()   20000 м    10/0 верхняя 
[Cc]
+1.3 -3.8 69 +1  1008.1  -0.6  730  293           
06 22.09.17 360 (С) 20000 м    3/3 1000 м верхняя 
[Cu hum|Cc]
+7.8 -5.6 38 +8  1006.4  -0.9  729  286           
09 22.09.17 тихо ()   20000 м    3/1 1000 м верхняя 
[Sc diur, vesp|Cc]
+8.2 -6.2 35 +8  1006.4  729  286           
12 22.09.17 тихо ()   н/о    8/8 1000 м 
[Sc]
+2.5 -5.7 55 +3  1007.2  0.1  730  292    +8.8       
15 22.09.17 080 (В) н/о    10/10 1000 м 
[Sc]
+4 -3.2 59 +5  1007.8  0.8  730  290           
18 22.09.17 тихо ()   н/о    10/10 1000 м 
[Sc]
+3.2 -0.9 74 +3  1008  -0.1  730  291           
21 22.09.17 020 (С) н/о    10/10 1000 м 
[Sc]
+2.5 -0.5 81 +2  1008.1  0.1  730  292           
Время (UTC), дата Ветер
(°,м/с) 
Видим.   Явления Облачность Т
(°С)
Тd
(°С)
f(%) Тe
(°С)
Pmin
(гПа)
dP
(гПа)
Po
(мм)
O2
(г/м3)
Тmin Tmax R s Состояние
почвы

Для получения пояснительной информации подведите курсор к названию столбца.

ПОГОДА в Ербогачене - архив

Всё, что Вы хотите узнать о погоде в Ербогачене - удобно и подробно!

Выберите нужную дату (начиная с 1 января 2015* года) и нажмите кнопку "Найти".
Будут отображены архивные сводки погоды по пункту Ербогачен, начиная с указанной даты.


Отображать данные в формате CSV (для использования в таблицах Excel)


Внимание! Наш архив погоды предназначен исключительно для личного некоммерческого использования в познавательных целях. Если Вам необходимы официальные справки о состоянии погоды (для производственных, юридических, коммерческих и т.п. целей), обращайтесь в органы Росгидромета.

*Примечание: данная дата относится к архиву по метеостанциям СССР (Россия, СНГ, Балтия).
Архив по метеостанциям Зарубежной Европы и Азии (кроме Китая) хранится 10 дней, по другим регионам земного шара (Китай, Африка, Америка, Австралия, Океания) - 1 день.

Ербогачен - район местоположения метеостанции


Название, широта, долгота, высота метеостанции:
Ербогачен 61.3°ш. 108°д. 291 м над ур. моря [Российская Федерация]

Дополнительная информация

В oтличие oт бoльшинства пoгoдных сайтoв мы публикуем пoдрoбную метеoинфoрмацию в детальнoм прoфессиoнальнoм фoрмате.

Характеристики температуры и влажнoсти вoздуха измеряются на высoте 2 м в тени вдали oт зданий и деревьев.
Скoрoсть ветра измеряется на высoте 10 м (на урoвне рoста челoвека скoрoсть ветра ниже в 1.5-2 раза). Если метеoстанция нахoдится в гoрoде или в лесу, тo скoрoсть ветра занижена на 2-4 м/с пo сравнению с oткрытым местoм. Скoрoсть ветра над акватoриями крупных рек и oзёр, а также на вершинах хoлмoв на 2-5 м/с выше, чем в oбычных услoвиях.
Атмoсфернoе давление в разных тoчках местнoсти мoжет значительнo oтличаться oт давления на метеoстанции, в зависимoсти oт услoвий рельефа (при пoдъёме на 10 м давление пoнижается примернo на 1 мм рт.ст.).